| time (UTC) | temp C | wind direction | speed KPH | gust KPH | rain 1hr cm | rain 24hr cm | rain mn cm | humidity % | barometer mb |
| 20260906080040 | 29 | 281 | 0.0 | 3.2 | 0.00 | 0.00 | 0.00 | 66 | 1018.2 |
| 20260906075540 | 29 | 284 | 0.0 | 3.2 | 0.00 | 0.00 | 0.00 | 67 | 1018.1 |
| 20260906075040 | 28 | 355 | 3.2 | 4.8 | 0.00 | 0.00 | 0.00 | 68 | 1018.1 |
| 20260906074543 | 28 | 302 | 0.0 | 3.2 | 0.00 | 0.00 | 0.00 | 69 | 1018.0 |
| 20260906074040 | 28 | 304 | 0.0 | 3.2 | 0.00 | 0.00 | 0.00 | 69 | 1018.0 |
| 20260906073540 | 28 | 301 | 0.0 | 6.4 | 0.00 | 0.00 | 0.00 | 69 | 1018.0 |
| 20260906073040 | 28 | 331 | 4.8 | 6.4 | 0.00 | 0.00 | 0.00 | 69 | 1018.0 |
| 20260906072540 | 28 | 113 | 0.0 | 1.6 | 0.00 | 0.00 | 0.00 | 71 | 1017.9 |
| 20260906072040 | 27 | 113 | 1.6 | 4.8 | 0.00 | 0.00 | 0.00 | 72 | 1017.9 |
| 20260906071540 | 27 | 14 | 0.0 | 3.2 | 0.00 | 0.00 | 0.00 | 73 | 1017.8 |
| 20260906071040 | 27 | 15 | 1.6 | 4.8 | 0.00 | 0.00 | 0.00 | 73 | 1017.9 |
| 20260906070540 | 27 | 5 | 1.6 | 1.6 | 0.00 | 0.00 | 0.00 | 74 | 1017.8 |
| 20260906070040 | 27 | 5 | 0.0 | 4.8 | 0.00 | 0.00 | 0.00 | 75 | 1017.9 |
| 20260906065540 | 26 | 325 | 3.2 | 4.8 | 0.00 | 0.00 | 0.00 | 75 | 1017.9 |
| 20260906065040 | 26 | 325 | 0.0 | 6.4 | 0.00 | 0.00 | 0.00 | 75 | 1017.8 |
| 20260906064540 | 26 | 333 | 4.8 | 6.4 | 0.00 | 0.00 | 0.00 | 75 | 1017.8 |
| 20260906064040 | 26 | 338 | 3.2 | 4.8 | 0.00 | 0.00 | 0.00 | 74 | 1017.7 |
| 20260906063540 | 26 | 339 | 1.6 | 4.8 | 0.00 | 0.00 | 0.00 | 73 | 1017.7 |
| 20260906063040 | 27 | 338 | 1.6 | 4.8 | 0.00 | 0.00 | 0.00 | 73 | 1017.7 |
| 20260906062540 | 26 | 337 | 0.0 | 0.0 | 0.00 | 0.00 | 0.00 | 73 | 1017.7 |
| 20260906062040 | 26 | 337 | 0.0 | 0.0 | 0.00 | 0.00 | 0.00 | 73 | 1017.7 |
| 20260906061540 | 26 | 337 | 0.0 | 0.0 | 0.00 | 0.00 | 0.00 | 73 | 1017.7 |
| 20260906061040 | 26 | 337 | 0.0 | 0.0 | 0.00 | 0.00 | 0.00 | 74 | 1017.7 |
| 20260906060540 | 26 | 337 | 0.0 | 0.0 | 0.00 | 0.00 | 0.00 | 75 | 1017.6 |
| 20260906060043 | 25 | 337 | 0.0 | 0.0 | 0.00 | 0.00 | 0.00 | 76 | 1017.6 |
| 20260906055540 | 25 | 337 | 0.0 | 0.0 | 0.00 | 0.00 | 0.00 | 77 | 1017.6 |
| 20260906055040 | 25 | 337 | 0.0 | 0.0 | 0.00 | 0.00 | 0.00 | 77 | 1017.6 |
| 20260906054540 | 24 | 337 | 0.0 | 0.0 | 0.00 | 0.00 | 0.00 | 78 | 1017.5 |
| 20260906054040 | 24 | 337 | 0.0 | 0.0 | 0.00 | 0.00 | 0.00 | 78 | 1017.5 |
| 20260906053540 | 24 | 337 | 0.0 | 0.0 | 0.00 | 0.00 | 0.00 | 79 | 1017.4 |
| 20260906053040 | 23 | 337 | 0.0 | 0.0 | 0.00 | 0.00 | 0.00 | 80 | 1017.4 |
| 20260906052543 | 23 | 337 | 0.0 | 0.0 | 0.00 | 0.00 | 0.00 | 80 | 1017.4 |
| 20260906052040 | 23 | 337 | 0.0 | 0.0 | 0.00 | 0.00 | 0.00 | 81 | 1017.4 |
| 20260906051540 | 23 | 337 | 0.0 | 0.0 | 0.00 | 0.00 | 0.00 | 81 | 1017.3 |
| 20260906051043 | 23 | 337 | 0.0 | 1.6 | 0.00 | 0.00 | 0.00 | 81 | 1017.4 |
| 20260906050543 | 23 | 337 | 0.0 | 1.6 | 0.00 | 0.00 | 0.00 | 81 | 1017.3 |
| 20260906050040 | 23 | 337 | 0.0 | 3.2 | 0.00 | 0.00 | 0.00 | 82 | 1017.2 |
| 20260906045540 | 23 | 343 | 0.0 | 1.6 | 0.00 | 0.00 | 0.00 | 81 | 1017.2 |
| 20260906045043 | 23 | 350 | 0.0 | 1.6 | 0.00 | 0.00 | 0.00 | 81 | 1017.2 |
| 20260906044540 | 23 | 350 | 0.0 | 1.6 | 0.00 | 0.00 | 0.00 | 81 | 1017.2 |
| 20260906044040 | 23 | 350 | 0.0 | 1.6 | 0.00 | 0.00 | 0.00 | 81 | 1017.2 |
| 20260906043540 | 23 | 355 | 1.6 | 1.6 | 0.00 | 0.00 | 0.00 | 81 | 1017.2 |
| 20260906043040 | 23 | 355 | 0.0 | 0.0 | 0.00 | 0.00 | 0.00 | 80 | 1017.2 |
| 20260906042540 | 23 | 355 | 0.0 | 1.6 | 0.00 | 0.00 | 0.00 | 80 | 1017.2 |
| 20260906042040 | 24 | 355 | 0.0 | 1.6 | 0.00 | 0.00 | 0.00 | 81 | 1017.2 |
| 20260906041540 | 24 | 355 | 0.0 | 0.0 | 0.00 | 0.00 | 0.00 | 81 | 1017.2 |
| 20260906041040 | 24 | 355 | 0.0 | 1.6 | 0.00 | 0.00 | 0.00 | 81 | 1017.1 |
| 20260906040543 | 24 | 355 | 0.0 | 1.6 | 0.00 | 0.00 | 0.00 | 81 | 1017.1 |
| 20260906040040 | 24 | 355 | 0.0 | 1.6 | 0.00 | 0.00 | 0.00 | 81 | 1017.0 |
| 20260906035541 | 24 | 355 | 0.0 | 1.6 | 0.00 | 0.00 | 0.00 | 81 | 1017.1 |
| 20260906035042 | 24 | 355 | 0.0 | 1.6 | 0.00 | 0.00 | 0.00 | 81 | 1017.0 |
| 20260906034540 | 24 | 355 | 0.0 | 0.0 | 0.00 | 0.00 | 0.00 | 81 | 1017.0 |
| 20260906034043 | 24 | 355 | 0.0 | 0.0 | 0.00 | 0.00 | 0.00 | 81 | 1017.0 |
| 20260906033540 | 24 | 355 | 0.0 | 1.6 | 0.00 | 0.00 | 0.00 | 81 | 1017.0 |
| 20260906033040 | 24 | 355 | 0.0 | 0.0 | 0.00 | 0.00 | 0.00 | 81 | 1016.9 |
| 20260906032540 | 24 | 355 | 0.0 | 0.0 | 0.00 | 0.00 | 0.00 | 81 | 1017.0 |
| 20260906032043 | 24 | 355 | 0.0 | 0.0 | 0.00 | 0.00 | 0.00 | 81 | 1017.0 |
| 20260906031540 | 24 | 355 | 0.0 | 0.0 | 0.00 | 0.00 | 0.00 | 80 | 1016.9 |
| 20260906031040 | 24 | 355 | 0.0 | 0.0 | 0.00 | 0.00 | 0.00 | 80 | 1017.0 |
| 20260906030539 | 25 | 355 | 0.0 | 0.0 | 0.00 | 0.00 | 0.00 | 80 | 1017.0 |
| 20260906030040 | 25 | 355 | 0.0 | 0.0 | 0.00 | 0.00 | 0.00 | 80 | 1016.9 |
| 20260906025540 | 25 | 355 | 0.0 | 0.0 | 0.00 | 0.00 | 0.00 | 80 | 1016.9 |
| 20260906025040 | 25 | 355 | 0.0 | 0.0 | 0.00 | 0.00 | 0.00 | 80 | 1017.0 |
| 20260906024540 | 25 | 355 | 0.0 | 1.6 | 0.00 | 0.00 | 0.00 | 80 | 1017.0 |
| 20260906024040 | 25 | 355 | 0.0 | 0.0 | 0.00 | 0.00 | 0.00 | 80 | 1017.0 |
| 20260906023540 | 25 | 355 | 0.0 | 1.6 | 0.00 | 0.00 | 0.00 | 80 | 1017.0 |
| 20260906023040 | 25 | 355 | 0.0 | 1.6 | 0.00 | 0.00 | 0.00 | 80 | 1017.0 |
| 20260906022539 | 25 | 355 | 1.6 | 3.2 | 0.00 | 0.00 | 0.00 | 80 | 1017.0 |
| 20260906022043 | 25 | 355 | 0.0 | 3.2 | 0.00 | 0.00 | 0.00 | 80 | 1017.0 |
| 20260906021540 | 25 | 355 | 0.0 | 1.6 | 0.00 | 0.00 | 0.00 | 80 | 1017.0 |
| 20260906021040 | 25 | 355 | 0.0 | 1.6 | 0.00 | 0.00 | 0.00 | 80 | 1017.0 |
| 20260906020540 | 25 | 355 | 0.0 | 3.2 | 0.00 | 0.00 | 0.00 | 80 | 1017.0 |
| 20260906020040 | 25 | 355 | 1.6 | 3.2 | 0.00 | 0.00 | 0.00 | 80 | 1017.0 |
| 20260906015540 | 25 | 355 | 0.0 | 1.6 | 0.00 | 0.00 | 0.00 | 79 | 1017.0 |
| 20260906015040 | 25 | 355 | 0.0 | 1.6 | 0.00 | 0.00 | 0.00 | 79 | 1017.0 |
| 20260906014539 | 25 | 355 | 0.0 | 3.2 | 0.00 | 0.00 | 0.00 | 79 | 1017.0 |
| 20260906014040 | 25 | 355 | 3.2 | 4.8 | 0.00 | 0.00 | 0.00 | 79 | 1017.0 |
| 20260906013540 | 25 | 351 | 3.2 | 4.8 | 0.00 | 0.00 | 0.00 | 79 | 1017.0 |
| 20260906013043 | 25 | 0 | 3.2 | 4.8 | 0.00 | 0.00 | 0.00 | 78 | 1017.1 |
| 20260906012540 | 25 | 5 | 1.6 | 1.6 | 0.00 | 0.00 | 0.00 | 78 | 1017.1 |
| 20260906012040 | 25 | 5 | 0.0 | 1.6 | 0.00 | 0.00 | 0.00 | 77 | 1017.1 |
| 20260906011540 | 25 | 5 | 0.0 | 4.8 | 0.00 | 0.00 | 0.00 | 77 | 1017.1 |
| 20260906011040 | 25 | 5 | 1.6 | 6.4 | 0.00 | 0.00 | 0.00 | 77 | 1017.1 |
| 20260906010540 | 25 | 0 | 1.6 | 4.8 | 0.00 | 0.00 | 0.00 | 77 | 1017.0 |
| 20260906010040 | 25 | 0 | 1.6 | 3.2 | 0.00 | 0.00 | 0.00 | 76 | 1017.0 |
| 20260906005540 | 25 | 0 | 4.8 | 4.8 | 0.00 | 0.00 | 0.00 | 76 | 1017.0 |
| 20260906005040 | 25 | 0 | 0.0 | 3.2 | 0.00 | 0.00 | 0.00 | 76 | 1017.0 |
| 20260906004540 | 25 | 0 | 0.0 | 4.8 | 0.00 | 0.00 | 0.00 | 76 | 1017.0 |
| 20260906004039 | 25 | 9 | 0.0 | 4.8 | 0.00 | 0.00 | 0.00 | 75 | 1017.1 |
| 20260906003543 | 25 | 5 | 0.0 | 4.8 | 0.00 | 0.00 | 0.00 | 75 | 1017.1 |
| 20260906003039 | 25 | 11 | 3.2 | 4.8 | 0.00 | 0.00 | 0.00 | 75 | 1017.1 |
| 20260906002539 | 25 | 9 | 1.6 | 4.8 | 0.00 | 0.00 | 0.00 | 75 | 1017.1 |
| 20260906002040 | 25 | 9 | 1.6 | 6.4 | 0.00 | 0.00 | 0.00 | 75 | 1017.2 |
| 20260906001540 | 25 | 340 | 0.0 | 3.2 | 0.00 | 0.00 | 0.00 | 75 | 1017.3 |
| 20260906001040 | 25 | 340 | 0.0 | 1.6 | 0.00 | 0.00 | 0.00 | 75 | 1017.4 |
| 20260906000540 | 25 | 340 | 0.0 | 1.6 | 0.00 | 0.00 | 0.00 | 75 | 1017.4 |
| 20260906000040 | 25 | 340 | 0.0 | 3.2 | 0.00 | 0.00 | 0.00 | 75 | 1017.4 |
| 20260905235540 | 25 | 340 | 0.0 | 3.2 | 0.00 | 0.00 | 0.00 | 76 | 1017.4 |
| 20260905235043 | 25 | 340 | 0.0 | 3.2 | 0.00 | 0.00 | 0.00 | 75 | 1017.4 |
| 20260905234540 | 25 | 340 | 0.0 | 1.6 | 0.00 | 0.00 | 0.00 | 75 | 1017.3 |
| 20260905234040 | 25 | 340 | 1.6 | 1.6 | 0.00 | 0.00 | 0.00 | 74 | 1017.4 |
| 20260905233539 | 25 | 340 | 0.0 | 1.6 | 0.00 | 0.00 | 0.00 | 73 | 1017.3 |
| 20260905233040 | 25 | 340 | 0.0 | 0.0 | 0.00 | 0.00 | 0.00 | 72 | 1017.4 |
| 20260905232540 | 25 | 340 | 0.0 | 0.0 | 0.00 | 0.00 | 0.00 | 72 | 1017.4 |
| 20260905232039 | 25 | 340 | 0.0 | 0.0 | 0.00 | 0.00 | 0.00 | 72 | 1017.5 |
| 20260905231540 | 25 | 340 | 0.0 | 1.6 | 0.00 | 0.00 | 0.00 | 72 | 1017.4 |
| 20260905231040 | 25 | 340 | 0.0 | 1.6 | 0.00 | 0.00 | 0.00 | 72 | 1017.5 |
| 20260905230540 | 25 | 340 | 0.0 | 1.6 | 0.00 | 0.00 | 0.00 | 72 | 1017.4 |
| 20260905230040 | 25 | 340 | 0.0 | 0.0 | 0.00 | 0.00 | 0.00 | 71 | 1017.4 |
| 20260905225540 | 25 | 340 | 0.0 | 0.0 | 0.00 | 0.00 | 0.00 | 71 | 1017.4 |
| 20260905225040 | 25 | 340 | 0.0 | 3.2 | 0.00 | 0.00 | 0.00 | 71 | 1017.4 |
| 20260905224540 | 25 | 340 | 0.0 | 1.6 | 0.00 | 0.00 | 0.00 | 71 | 1017.5 |
| 20260905224040 | 25 | 340 | 0.0 | 3.2 | 0.00 | 0.00 | 0.00 | 71 | 1017.5 |
| 20260905223539 | 25 | 340 | 1.6 | 3.2 | 0.00 | 0.00 | 0.00 | 70 | 1017.5 |
| 20260905223040 | 25 | 340 | 0.0 | 3.2 | 0.00 | 0.00 | 0.00 | 70 | 1017.6 |
| 20260905222539 | 25 | 340 | 0.0 | 1.6 | 0.00 | 0.00 | 0.00 | 71 | 1017.6 |
| 20260905222040 | 26 | 340 | 0.0 | 1.6 | 0.00 | 0.00 | 0.00 | 71 | 1017.5 |
| 20260905221539 | 25 | 340 | 0.0 | 1.6 | 0.00 | 0.00 | 0.00 | 71 | 1017.5 |
| 20260905221040 | 25 | 340 | 0.0 | 1.6 | 0.00 | 0.00 | 0.00 | 71 | 1017.6 |
| 20260905220540 | 25 | 340 | 0.0 | 1.6 | 0.00 | 0.00 | 0.00 | 71 | 1017.5 |
| 20260905220039 | 25 | 340 | 0.0 | 3.2 | 0.00 | 0.00 | 0.00 | 72 | 1017.4 |
| 20260905215543 | 25 | 340 | 0.0 | 1.6 | 0.00 | 0.00 | 0.00 | 73 | 1017.4 |
| 20260905215039 | 25 | 340 | 0.0 | 4.8 | 0.00 | 0.00 | 0.00 | 73 | 1017.4 |
| 20260905214540 | 25 | 339 | 0.0 | 3.2 | 0.00 | 0.00 | 0.00 | 73 | 1017.4 |
| 20260905214039 | 25 | 338 | 0.0 | 3.2 | 0.00 | 0.00 | 0.00 | 73 | 1017.4 |
| 20260905213539 | 26 | 338 | 1.6 | 3.2 | 0.00 | 0.00 | 0.00 | 74 | 1017.4 |
| 20260905213039 | 26 | 338 | 3.2 | 4.8 | 0.00 | 0.00 | 0.00 | 74 | 1017.4 |
| 20260905212539 | 26 | 334 | 0.0 | 1.6 | 0.00 | 0.00 | 0.00 | 74 | 1017.4 |
| 20260905212039 | 26 | 334 | 0.0 | 3.2 | 0.00 | 0.00 | 0.00 | 74 | 1017.4 |
| 20260905211540 | 26 | 334 | 0.0 | 3.2 | 0.00 | 0.00 | 0.00 | 74 | 1017.4 |
| 20260905211040 | 26 | 334 | 0.0 | 4.8 | 0.00 | 0.00 | 0.00 | 74 | 1017.5 |
| 20260905210539 | 26 | 332 | 3.2 | 6.4 | 0.00 | 0.00 | 0.00 | 75 | 1017.4 |
| 20260905210043 | 26 | 324 | 3.2 | 3.2 | 0.00 | 0.00 | 0.00 | 75 | 1017.4 |
| 20260905205543 | 26 | 324 | 0.0 | 1.6 | 0.00 | 0.00 | 0.00 | 76 | 1017.5 |
| 20260905205040 | 26 | 324 | 1.6 | 1.6 | 0.00 | 0.00 | 0.00 | 76 | 1017.4 |
| 20260905204539 | 26 | 324 | 0.0 | 1.6 | 0.00 | 0.00 | 0.00 | 75 | 1017.4 |
| 20260905204040 | 26 | 324 | 0.0 | 1.6 | 0.00 | 0.00 | 0.00 | 75 | 1017.4 |
| 20260905203539 | 26 | 324 | 0.0 | 0.0 | 0.00 | 0.00 | 0.00 | 75 | 1017.3 |
| 20260905203042 | 26 | 324 | 0.0 | 1.6 | 0.00 | 0.00 | 0.00 | 75 | 1017.4 |
| 20260905202539 | 26 | 324 | 0.0 | 1.6 | 0.00 | 0.00 | 0.00 | 75 | 1017.5 |
| 20260905202039 | 26 | 324 | 1.6 | 3.2 | 0.00 | 0.00 | 0.00 | 75 | 1017.5 |
| 20260905201539 | 26 | 323 | 0.0 | 3.2 | 0.00 | 0.00 | 0.00 | 75 | 1017.4 |
| 20260905201039 | 26 | 323 | 1.6 | 1.6 | 0.00 | 0.00 | 0.00 | 76 | 1017.4 |
| 20260905200540 | 26 | 324 | 0.0 | 1.6 | 0.00 | 0.00 | 0.00 | 76 | 1017.4 |
| 20260905200040 | 26 | 324 | 1.6 | 3.2 | 0.00 | 0.00 | 0.00 | 76 | 1017.4 |
| 20260905195540 | 26 | 323 | 0.0 | 1.6 | 0.00 | 0.00 | 0.00 | 76 | 1017.5 |
| 20260905195039 | 26 | 323 | 0.0 | 3.2 | 0.00 | 0.00 | 0.00 | 76 | 1017.4 |
| 20260905194540 | 26 | 323 | 0.0 | 1.6 | 0.00 | 0.00 | 0.00 | 76 | 1017.3 |
| 20260905194039 | 26 | 323 | 0.0 | 1.6 | 0.00 | 0.00 | 0.00 | 76 | 1017.4 |
| 20260905193540 | 26 | 324 | 0.0 | 3.2 | 0.00 | 0.00 | 0.00 | 76 | 1017.4 |
| 20260905193043 | 26 | 323 | 0.0 | 1.6 | 0.00 | 0.00 | 0.00 | 76 | 1017.4 |
| 20260905192539 | 26 | 323 | 0.0 | 1.6 | 0.00 | 0.00 | 0.00 | 75 | 1017.3 |
| 20260905192040 | 26 | 323 | 0.0 | 3.2 | 0.00 | 0.00 | 0.00 | 75 | 1017.3 |
| 20260905191539 | 26 | 322 | 3.2 | 3.2 | 0.00 | 0.00 | 0.00 | 74 | 1017.3 |
| 20260905191039 | 26 | 322 | 3.2 | 6.4 | 0.00 | 0.00 | 0.00 | 73 | 1017.3 |
| 20260905190542 | 26 | 311 | 0.0 | 0.0 | 0.00 | 0.00 | 0.00 | 73 | 1017.1 |
| 20260905190039 | 26 | 311 | 0.0 | 1.6 | 0.00 | 0.00 | 0.00 | 72 | 1017.0 |
| 20260905185539 | 26 | 317 | 0.0 | 3.2 | 0.00 | 0.00 | 0.00 | 72 | 1017.0 |
| 20260905185040 | 26 | 313 | 1.6 | 4.8 | 0.00 | 0.00 | 0.00 | 72 | 1017.0 |
| 20260905184540 | 27 | 305 | 1.6 | 6.4 | 0.00 | 0.00 | 0.00 | 73 | 1016.9 |
| 20260905184040 | 27 | 300 | 1.6 | 4.8 | 0.00 | 0.00 | 0.00 | 74 | 1016.9 |
| 20260905183540 | 27 | 267 | 0.0 | 0.0 | 0.00 | 0.00 | 0.00 | 74 | 1016.9 |
| 20260905183040 | 27 | 267 | 0.0 | 1.6 | 0.00 | 0.00 | 0.00 | 74 | 1016.9 |
| 20260905182543 | 27 | 267 | 0.0 | 3.2 | 0.00 | 0.00 | 0.00 | 74 | 1016.9 |
| 20260905182039 | 27 | 276 | 0.0 | 1.6 | 0.00 | 0.00 | 0.00 | 75 | 1016.8 |
| 20260905181543 | 27 | 281 | 0.0 | 0.0 | 0.00 | 0.00 | 0.00 | 75 | 1016.8 |
| 20260905181039 | 27 | 281 | 0.0 | 1.6 | 0.00 | 0.00 | 0.00 | 74 | 1016.7 |
| 20260905180540 | 27 | 279 | 0.0 | 1.6 | 0.00 | 0.00 | 0.00 | 74 | 1016.6 |
| 20260905180039 | 27 | 266 | 0.0 | 1.6 | 0.00 | 0.00 | 0.00 | 75 | 1016.6 |
| 20260905175540 | 27 | 262 | 0.0 | 3.2 | 0.00 | 0.00 | 0.00 | 75 | 1016.5 |
| 20260905175040 | 27 | 269 | 0.0 | 1.6 | 0.00 | 0.00 | 0.00 | 76 | 1016.5 |
| 20260905174542 | 27 | 275 | 0.0 | 1.6 | 0.00 | 0.00 | 0.00 | 75 | 1016.5 |
| 20260905174040 | 27 | 275 | 0.0 | 1.6 | 0.00 | 0.00 | 0.00 | 75 | 1016.5 |
| 20260905173539 | 27 | 275 | 0.0 | 1.6 | 0.00 | 0.00 | 0.00 | 74 | 1016.4 |
| 20260905173040 | 27 | 285 | 0.0 | 1.6 | 0.00 | 0.00 | 0.00 | 73 | 1016.4 |
| 20260905172540 | 27 | 209 | 0.0 | 3.2 | 0.00 | 0.00 | 0.00 | 72 | 1016.4 |
| 20260905172039 | 27 | 229 | 0.0 | 4.8 | 0.00 | 0.00 | 0.00 | 71 | 1016.4 |
| 20260905171540 | 28 | 34 | 0.0 | 3.2 | 0.00 | 0.00 | 0.00 | 70 | 1016.3 |
| 20260905171040 | 28 | 331 | 0.0 | 3.2 | 0.00 | 0.00 | 0.00 | 70 | 1016.4 |
| 20260905170539 | 28 | 0 | 1.6 | 4.8 | 0.00 | 0.00 | 0.00 | 69 | 1016.4 |
| 20260905170039 | 28 | 327 | 1.6 | 1.6 | 0.00 | 0.00 | 0.00 | 68 | 1016.4 |
| 20260905165539 | 28 | 273 | 0.0 | 1.6 | 0.00 | 0.00 | 0.00 | 67 | 1016.4 |
| 20260905165039 | 28 | 252 | 0.0 | 3.2 | 0.00 | 0.00 | 0.00 | 66 | 1016.3 |
| 20260905164539 | 28 | 181 | 0.0 | 3.2 | 0.00 | 0.00 | 0.00 | 65 | 1016.3 |
| 20260905164039 | 28 | 19 | 0.0 | 3.2 | 0.00 | 0.00 | 0.00 | 63 | 1016.3 |
| 20260905163542 | 29 | 339 | 0.0 | 3.2 | 0.00 | 0.00 | 0.00 | 63 | 1016.2 |
| 20260905163040 | 29 | 59 | 0.0 | 3.2 | 0.00 | 0.00 | 0.00 | 62 | 1016.2 |
| 20260905162540 | 29 | 192 | 0.0 | 9.7 | 0.00 | 0.00 | 0.00 | 61 | 1016.1 |
| 20260905162040 | 29 | 312 | 0.0 | 1.6 | 0.00 | 0.00 | 0.00 | 62 | 1016.1 |
| 20260905161540 | 30 | 88 | 0.0 | 4.8 | 0.00 | 0.00 | 0.00 | 61 | 1016.1 |
| 20260905161039 | 30 | 181 | 0.0 | 3.2 | 0.00 | 0.00 | 0.00 | 60 | 1016.2 |
| 20260905160539 | 30 | 257 | 0.0 | 9.7 | 0.00 | 0.00 | 0.00 | 61 | 1016.1 |
| 20260905160039 | 30 | 315 | 1.6 | 4.8 | 0.00 | 0.00 | 0.00 | 60 | 1016.2 |
| 20260905155539 | 30 | 42 | 0.0 | 4.8 | 0.00 | 0.00 | 0.00 | 58 | 1016.3 |
| 20260905155039 | 30 | 204 | 0.0 | 3.2 | 0.00 | 0.00 | 0.00 | 59 | 1016.3 |
| 20260905154539 | 30 | 24 | 1.6 | 4.8 | 0.00 | 0.00 | 0.00 | 59 | 1016.4 |
| 20260905154043 | 30 | 254 | 0.0 | 4.8 | 0.00 | 0.00 | 0.00 | 59 | 1016.3 |
| 20260905153543 | 30 | 282 | 1.6 | 3.2 | 0.00 | 0.00 | 0.00 | 58 | 1016.3 |
| 20260905153039 | 30 | 35 | 0.0 | 6.4 | 0.00 | 0.00 | 0.00 | 57 | 1016.2 |
| 20260905152540 | 30 | 32 | 0.0 | 6.4 | 0.00 | 0.00 | 0.00 | 56 | 1016.3 |
| 20260905152039 | 30 | 337 | 0.0 | 4.8 | 0.00 | 0.00 | 0.00 | 55 | 1016.3 |
| 20260905151539 | 30 | 315 | 0.0 | 9.7 | 0.00 | 0.00 | 0.00 | 56 | 1016.4 |
| 20260905151039 | 30 | 243 | 0.0 | 8.0 | 0.00 | 0.00 | 0.00 | 58 | 1016.4 |
| 20260905150539 | 30 | 227 | 0.0 | 4.8 | 0.00 | 0.00 | 0.00 | 59 | 1016.4 |
| 20260905150039 | 30 | 232 | 0.0 | 4.8 | 0.00 | 0.00 | 0.00 | 60 | 1016.3 |
| 20260905145540 | 30 | 211 | 1.6 | 3.2 | 0.00 | 0.00 | 0.00 | 59 | 1016.4 |
| 20260905145039 | 30 | 190 | 0.0 | 6.4 | 0.00 | 0.00 | 0.00 | 60 | 1016.4 |
| 20260905144539 | 30 | 274 | 1.6 | 6.4 | 0.00 | 0.00 | 0.00 | 60 | 1016.4 |
| 20260905144040 | 30 | 122 | 0.0 | 6.4 | 0.00 | 0.00 | 0.00 | 61 | 1016.4 |
| 20260905143539 | 30 | 306 | 3.2 | 8.0 | 0.00 | 0.00 | 0.00 | 61 | 1016.5 |
| 20260905143040 | 30 | 230 | 1.6 | 6.4 | 0.00 | 0.00 | 0.00 | 63 | 1016.5 |
| 20260905142540 | 30 | 206 | 4.8 | 9.7 | 0.00 | 0.00 | 0.00 | 63 | 1016.5 |
| 20260905142040 | 30 | 348 | 0.0 | 11.3 | 0.00 | 0.00 | 0.00 | 62 | 1016.6 |
| 20260905141540 | 30 | 333 | 4.8 | 12.9 | 0.00 | 0.00 | 0.00 | 60 | 1016.6 |
| 20260905141039 | 30 | 101 | 0.0 | 14.5 | 0.00 | 0.00 | 0.00 | 61 | 1016.6 |
| 20260905140540 | 30 | 242 | 1.6 | 11.3 | 0.00 | 0.00 | 0.00 | 60 | 1016.7 |
| 20260905140043 | 30 | 245 | 1.6 | 14.5 | 0.00 | 0.00 | 0.00 | 60 | 1016.7 |
| 20260905135539 | 30 | 344 | 0.0 | 6.4 | 0.00 | 0.00 | 0.00 | 59 | 1016.8 |
| 20260905135043 | 30 | 237 | 3.2 | 11.3 | 0.00 | 0.00 | 0.00 | 59 | 1016.7 |
| 20260905134540 | 30 | 29 | 0.0 | 9.7 | 0.00 | 0.00 | 0.00 | 61 | 1016.8 |
| 20260905134039 | 30 | 69 | 3.2 | 9.7 | 0.00 | 0.00 | 0.00 | 60 | 1016.8 |
| 20260905133543 | 30 | 30 | 1.6 | 6.4 | 0.00 | 0.00 | 0.00 | 59 | 1016.8 |
| 20260905133039 | 30 | 172 | 0.0 | 16.1 | 0.00 | 0.00 | 0.00 | 59 | 1016.9 |
| 20260905132539 | 30 | 329 | 1.6 | 11.3 | 0.00 | 0.00 | 0.00 | 61 | 1016.9 |
| 20260905132039 | 31 | 170 | 1.6 | 8.0 | 0.00 | 0.00 | 0.00 | 61 | 1016.9 |
| 20260905131539 | 31 | 202 | 3.2 | 4.8 | 0.00 | 0.00 | 0.00 | 61 | 1016.9 |
| 20260905131042 | 31 | 140 | 0.0 | 6.4 | 0.00 | 0.00 | 0.00 | 60 | 1016.9 |
| 20260905130539 | 31 | 349 | 0.0 | 11.3 | 0.00 | 0.00 | 0.00 | 57 | 1016.9 |
| 20260905130039 | 31 | 207 | 1.6 | 11.3 | 0.00 | 0.00 | 0.00 | 55 | 1017.0 |
| 20260905125539 | 31 | 308 | 1.6 | 9.7 | 0.00 | 0.00 | 0.00 | 54 | 1017.0 |
| 20260905125039 | 31 | 213 | 3.2 | 12.9 | 0.00 | 0.00 | 0.00 | 55 | 1016.9 |
| 20260905124539 | 31 | 330 | 1.6 | 6.4 | 0.00 | 0.00 | 0.00 | 53 | 1016.9 |
| 20260905124039 | 31 | 67 | 3.2 | 6.4 | 0.00 | 0.00 | 0.00 | 46 | 1017.0 |
| 20260905123539 | 31 | 199 | 0.0 | 9.7 | 0.00 | 0.00 | 0.00 | 49 | 1017.0 |
| 20260905123039 | 31 | 22 | 0.0 | 11.3 | 0.00 | 0.00 | 0.00 | 48 | 1017.0 |
| 20260905122539 | 31 | 329 | 0.0 | 8.0 | 0.00 | 0.00 | 0.00 | 49 | 1017.0 |
| 20260905122040 | 31 | 187 | 0.0 | 6.4 | 0.00 | 0.00 | 0.00 | 51 | 1017.0 |
| 20260905121542 | 31 | 146 | 1.6 | 6.4 | 0.00 | 0.00 | 0.00 | 55 | 1017.0 |
| 20260905121039 | 31 | 263 | 1.6 | 12.9 | 0.00 | 0.00 | 0.00 | 57 | 1017.0 |
| 20260905120539 | 31 | 217 | 1.6 | 8.0 | 0.00 | 0.00 | 0.00 | 58 | 1017.0 |
| 20260905120040 | 31 | 68 | 0.0 | 3.2 | 0.00 | 0.00 | 0.00 | 58 | 1017.1 |
| 20260905115540 | 31 | 173 | 1.6 | 6.4 | 0.00 | 0.00 | 0.00 | 56 | 1017.1 |
| 20260905115039 | 31 | 207 | 1.6 | 9.7 | 0.00 | 0.00 | 0.00 | 54 | 1017.1 |
| 20260905114540 | 31 | 217 | 1.6 | 4.8 | 0.00 | 0.00 | 0.00 | 53 | 1017.1 |
| 20260905114039 | 31 | 183 | 0.0 | 9.7 | 0.00 | 0.00 | 0.00 | 53 | 1017.0 |
| 20260905113539 | 31 | 207 | 4.8 | 6.4 | 0.00 | 0.00 | 0.00 | 53 | 1017.0 |
| 20260905113042 | 31 | 175 | 0.0 | 4.8 | 0.00 | 0.00 | 0.00 | 53 | 1017.0 |
| 20260905112539 | 31 | 261 | 1.6 | 4.8 | 0.00 | 0.00 | 0.00 | 53 | 1016.9 |
| 20260905112040 | 31 | 333 | 1.6 | 8.0 | 0.00 | 0.00 | 0.00 | 54 | 1017.0 |
| 20260905111539 | 31 | 65 | 0.0 | 8.0 | 0.00 | 0.00 | 0.00 | 53 | 1017.1 |
| 20260905111039 | 31 | 178 | 0.0 | 6.4 | 0.00 | 0.00 | 0.00 | 51 | 1017.0 |
| 20260905110539 | 31 | 197 | 6.4 | 6.4 | 0.00 | 0.00 | 0.00 | 52 | 1017.1 |
| 20260905110039 | 31 | 208 | 0.0 | 9.7 | 0.00 | 0.00 | 0.00 | 51 | 1017.1 |
| 20260905105540 | 31 | 88 | 1.6 | 3.2 | 0.00 | 0.00 | 0.00 | 51 | 1017.1 |
| 20260905105039 | 31 | 225 | 0.0 | 3.2 | 0.00 | 0.00 | 0.00 | 48 | 1017.2 |
| 20260905104539 | 31 | 139 | 0.0 | 3.2 | 0.00 | 0.00 | 0.00 | 46 | 1017.2 |
| 20260905104039 | 31 | 103 | 1.6 | 4.8 | 0.00 | 0.00 | 0.00 | 46 | 1017.2 |
| 20260905103539 | 31 | 33 | 1.6 | 4.8 | 0.00 | 0.00 | 0.00 | 47 | 1017.2 |
| 20260905103042 | 31 | 282 | 0.0 | 8.0 | 0.00 | 0.00 | 0.00 | 46 | 1017.1 |
| 20260905102539 | 31 | 244 | 0.0 | 12.9 | 0.00 | 0.00 | 0.00 | 45 | 1017.2 |
| 20260905102039 | 31 | 194 | 3.2 | 8.0 | 0.00 | 0.00 | 0.00 | 44 | 1017.2 |
| 20260905101539 | 31 | 176 | 3.2 | 4.8 | 0.00 | 0.00 | 0.00 | 43 | 1017.2 |
| 20260905101039 | 31 | 309 | 1.6 | 4.8 | 0.00 | 0.00 | 0.00 | 44 | 1017.2 |
| 20260905100539 | 31 | 216 | 0.0 | 6.4 | 0.00 | 0.00 | 0.00 | 44 | 1017.3 |
| 20260905100039 | 31 | 234 | 0.0 | 12.9 | 0.00 | 0.00 | 0.00 | 43 | 1017.3 |
| 20260905095542 | 32 | 217 | 0.0 | 8.0 | 0.00 | 0.00 | 0.00 | 41 | 1017.3 |
| 20260905095039 | 32 | 260 | 0.0 | 6.4 | 0.00 | 0.00 | 0.00 | 41 | 1017.3 |
| 20260905094539 | 32 | 232 | 1.6 | 6.4 | 0.00 | 0.00 | 0.00 | 42 | 1017.2 |
| 20260905094039 | 32 | 214 | 6.4 | 8.0 | 0.00 | 0.00 | 0.00 | 41 | 1017.2 |
| 20260905093539 | 32 | 227 | 0.0 | 16.1 | 0.00 | 0.00 | 0.00 | 41 | 1017.3 |
| 20260905093039 | 32 | 245 | 4.8 | 16.1 | 0.00 | 0.00 | 0.00 | 41 | 1017.2 |
| 20260905092539 | 32 | 200 | 1.6 | 12.9 | 0.00 | 0.00 | 0.00 | 39 | 1017.1 |
| 20260905092039 | 32 | 186 | 6.4 | 9.7 | 0.00 | 0.00 | 0.00 | 37 | 1017.1 |
| 20260905091539 | 32 | 185 | 1.6 | 9.7 | 0.00 | 0.00 | 0.00 | 36 | 1017.1 |
| 20260905091039 | 32 | 166 | 4.8 | 9.7 | 0.00 | 0.00 | 0.00 | 37 | 1017.1 |
| 20260905090539 | 32 | 170 | 8.0 | 6.4 | 0.00 | 0.00 | 0.00 | 38 | 1017.1 |
| 20260905090039 | 31 | 218 | 0.0 | 8.0 | 0.00 | 0.00 | 0.00 | 37 | 1017.0 |
| 20260905085542 | 32 | 175 | 1.6 | 4.8 | 0.00 | 0.00 | 0.00 | 38 | 1017.0 |
| 20260905085039 | 31 | 225 | 0.0 | 1.6 | 0.00 | 0.00 | 0.00 | 39 | 1017.1 |
| 20260905084542 | 31 | 227 | 0.0 | 4.8 | 0.00 | 0.00 | 0.00 | 39 | 1017.1 |
| 20260905084039 | 31 | 312 | 3.2 | 3.2 | 0.00 | 0.00 | 0.00 | 38 | 1017.2 |
| 20260905083539 | 31 | 229 | 0.0 | 3.2 | 0.00 | 0.00 | 0.00 | 39 | 1017.1 |
| 20260905083039 | 31 | 214 | 0.0 | 1.6 | 0.00 | 0.00 | 0.00 | 39 | 1017.1 |
| 20260905082539 | 31 | 211 | 0.0 | 4.8 | 0.00 | 0.00 | 0.00 | 38 | 1017.1 |
| 20260905082039 | 31 | 266 | 0.0 | 1.6 | 0.00 | 0.00 | 0.00 | 38 | 1017.0 |
| 20260905081539 | 31 | 266 | 0.0 | 4.8 | 0.00 | 0.00 | 0.00 | 39 | 1016.9 |
| 20260905081039 | 31 | 280 | 0.0 | 1.6 | 0.00 | 0.00 | 0.00 | 40 | 1016.8 |
| 20260905080539 | 30 | 280 | 0.0 | 1.6 | 0.00 | 0.00 | 0.00 | 41 | 1016.8 |